Time,TemperatureF,DewpointF,PressureIn,WindDirection,WindDirectionDegrees,WindSpeedMPH,WindSpeedGustMPH,Humidity,HourlyPrecipIn,Conditions,Clouds,dailyrainin,SoftwareType,DateUTC
2013-04-07 00:01:00,34.0,33.0,-100.00,NW,320,0.0,0.0,98,-99.99,,,-99.99,,2013-04-07 05:01:00,
2013-04-07 00:23:00,34.0,33.0,-100.00,NW,320,0.0,0.0,98,-99.99,,,-99.99,,2013-04-07 05:23:00,
2013-04-07 00:34:00,34.0,33.0,-100.00,NW,320,0.0,0.0,98,-99.99,,,-99.99,,2013-04-07 05:34:00,
2013-04-07 00:43:00,34.0,33.0,-100.00,NW,320,0.0,0.0,98,-99.99,,,-99.99,,2013-04-07 05:43:00,
2013-04-07 00:52:00,34.0,33.0,-100.00,NW,320,0.0,0.0,98,-99.99,,,-99.99,,2013-04-07 05:52:00,
2013-04-07 01:01:00,33.0,31.0,-100.00,WNW,300,0.0,0.0,94,-99.99,,,-99.99,,2013-04-07 06:01:00,
2013-04-07 01:22:00,33.0,31.0,-100.00,WNW,300,0.0,0.0,94,-99.99,,,-99.99,,2013-04-07 06:22:00,
2013-04-07 01:32:00,33.0,31.0,-100.00,WNW,300,0.0,0.0,94,-99.99,,,-99.99,,2013-04-07 06:32:00,
2013-04-07 01:43:00,33.0,31.0,-100.00,WNW,300,0.0,0.0,94,-99.99,,,-99.99,,2013-04-07 06:43:00,
2013-04-07 01:52:00,33.0,31.0,-100.00,WNW,300,0.0,0.0,94,-99.99,,,-99.99,,2013-04-07 06:52:00,
2013-04-07 02:01:00,32.0,31.0,-100.00,NW,325,0.0,0.0,93,-99.99,,,-99.99,,2013-04-07 07:01:00,
2013-04-07 02:22:00,32.0,31.0,-100.00,NW,325,0.0,0.0,93,-99.99,,,-99.99,,2013-04-07 07:22:00,
2013-04-07 02:33:00,32.0,31.0,-100.00,NW,325,0.0,0.0,93,-99.99,,,-99.99,,2013-04-07 07:33:00,
2013-04-07 02:42:00,32.0,31.0,-100.00,NW,325,0.0,0.0,93,-99.99,,,-99.99,,2013-04-07 07:42:00,
2013-04-07 02:52:00,32.0,31.0,-100.00,NW,325,0.0,0.0,93,-99.99,,,-99.99,,2013-04-07 07:52:00,
2013-04-07 03:01:00,32.0,29.0,-100.00,NW,310,0.0,0.0,89,-99.99,,,-99.99,,2013-04-07 08:01:00,
2013-04-07 03:23:00,32.0,29.0,-100.00,NW,310,0.0,0.0,89,-99.99,,,-99.99,,2013-04-07 08:23:00,
2013-04-07 03:33:00,32.0,29.0,-100.00,NW,310,0.0,0.0,89,-99.99,,,-99.99,,2013-04-07 08:33:00,
2013-04-07 03:43:00,32.0,29.0,-100.00,NW,310,0.0,0.0,89,-99.99,,,-99.99,,2013-04-07 08:43:00,
2013-04-07 03:53:00,32.0,29.0,-100.00,NW,310,0.0,0.0,89,-99.99,,,-99.99,,2013-04-07 08:53:00,
2013-04-07 04:01:00,32.0,29.0,-100.00,NW,315,0.0,0.0,88,-99.99,,,-99.99,,2013-04-07 09:01:00,
2013-04-07 04:23:00,32.0,29.0,-100.00,NW,315,0.0,0.0,88,-99.99,,,-99.99,,2013-04-07 09:23:00,
2013-04-07 04:34:00,32.0,29.0,-100.00,NW,315,0.0,0.0,88,-99.99,,,-99.99,,2013-04-07 09:34:00,
2013-04-07 04:44:00,32.0,29.0,-100.00,NW,315,0.0,0.0,88,-99.99,,,-99.99,,2013-04-07 09:44:00,
2013-04-07 04:54:00,32.0,29.0,-100.00,NW,315,0.0,0.0,88,-99.99,,,-99.99,,2013-04-07 09:54:00,
2013-04-07 05:01:00,32.0,30.0,-100.00,NW,320,0.0,0.0,91,-99.99,,,-99.99,,2013-04-07 10:01:00,
2013-04-07 05:23:00,32.0,30.0,-100.00,NW,320,0.0,0.0,91,-99.99,,,-99.99,,2013-04-07 10:23:00,
2013-04-07 05:34:00,32.0,30.0,-100.00,NW,320,0.0,0.0,91,-99.99,,,-99.99,,2013-04-07 10:34:00,
2013-04-07 05:43:00,32.0,30.0,-100.00,NW,320,0.0,0.0,91,-99.99,,,-99.99,,2013-04-07 10:43:00,
2013-04-07 05:54:00,32.0,30.0,-100.00,NW,320,0.0,0.0,91,-99.99,,,-99.99,,2013-04-07 10:54:00,
2013-04-07 06:01:00,32.0,30.0,-100.00,NW,305,0.0,0.0,91,-99.99,,,-99.99,,2013-04-07 11:01:00,
2013-04-07 06:23:00,32.0,30.0,-100.00,NW,305,0.0,0.0,91,-99.99,,,-99.99,,2013-04-07 11:23:00,
2013-04-07 06:33:00,32.0,30.0,-100.00,NW,305,0.0,0.0,91,-99.99,,,-99.99,,2013-04-07 11:33:00,
2013-04-07 06:43:00,32.0,30.0,-100.00,NW,305,0.0,0.0,91,-99.99,,,-99.99,,2013-04-07 11:43:00,
2013-04-07 06:53:00,32.0,30.0,-100.00,NW,305,0.0,0.0,91,-99.99,,,-99.99,,2013-04-07 11:53:00,
2013-04-07 07:01:00,33.0,30.0,-100.00,NW,310,0.0,0.0,91,-99.99,,,-99.99,,2013-04-07 12:01:00,
2013-04-07 07:23:00,33.0,30.0,-100.00,NW,310,0.0,0.0,91,-99.99,,,-99.99,,2013-04-07 12:23:00,
2013-04-07 07:34:00,33.0,30.0,-100.00,NW,310,0.0,0.0,91,-99.99,,,-99.99,,2013-04-07 12:34:00,
2013-04-07 07:43:00,33.0,30.0,-100.00,NW,310,0.0,0.0,91,-99.99,,,-99.99,,2013-04-07 12:43:00,
2013-04-07 07:54:00,33.0,30.0,-100.00,NW,310,0.0,0.0,91,-99.99,,,-99.99,,2013-04-07 12:54:00,
2013-04-07 08:01:00,33.0,30.0,-100.00,NW,315,0.0,0.0,88,-99.99,,,-99.99,,2013-04-07 13:01:00,
2013-04-07 08:23:00,33.0,30.0,-100.00,NW,315,0.0,0.0,88,-99.99,,,-99.99,,2013-04-07 13:23:00,
2013-04-07 08:33:00,33.0,30.0,-100.00,NW,315,0.0,0.0,88,-99.99,,,-99.99,,2013-04-07 13:33:00,
2013-04-07 08:43:00,33.0,30.0,-100.00,NW,315,0.0,0.0,88,-99.99,,,-99.99,,2013-04-07 13:43:00,
2013-04-07 08:53:00,33.0,30.0,-100.00,NW,315,0.0,0.0,88,-99.99,,,-99.99,,2013-04-07 13:53:00,
2013-04-07 09:01:00,33.0,30.0,-100.00,NW,325,0.0,0.0,89,-99.99,,,-99.99,,2013-04-07 14:01:00,
2013-04-07 09:23:00,33.0,30.0,-100.00,NW,325,0.0,0.0,89,-99.99,,,-99.99,,2013-04-07 14:23:00,
2013-04-07 09:33:00,33.0,30.0,-100.00,NW,325,0.0,0.0,89,-99.99,,,-99.99,,2013-04-07 14:33:00,
2013-04-07 09:44:00,33.0,30.0,-100.00,NW,325,0.0,0.0,89,-99.99,,,-99.99,,2013-04-07 14:44:00,
2013-04-07 09:54:00,33.0,30.0,-100.00,NW,325,0.0,0.0,89,-99.99,,,-99.99,,2013-04-07 14:54:00,
2013-04-07 10:01:00,33.0,29.0,-100.00,NW,325,0.0,0.0,84,-99.99,,,-99.99,,2013-04-07 15:01:00,
2013-04-07 10:23:00,33.0,29.0,-100.00,NW,325,0.0,0.0,84,-99.99,,,-99.99,,2013-04-07 15:23:00,
2013-04-07 10:35:00,33.0,29.0,-100.00,NW,325,0.0,0.0,84,-99.99,,,-99.99,,2013-04-07 15:35:00,
2013-04-07 10:45:00,33.0,29.0,-100.00,NW,325,0.0,0.0,84,-99.99,,,-99.99,,2013-04-07 15:45:00,
2013-04-07 10:55:00,33.0,29.0,-100.00,NW,325,0.0,0.0,84,-99.99,,,-99.99,,2013-04-07 15:55:00,
2013-04-07 11:01:00,34.0,28.0,-100.00,NW,325,0.0,0.0,81,-99.99,,,-99.99,,2013-04-07 16:01:00,
2013-04-07 11:25:00,34.0,28.0,-100.00,NW,325,0.0,0.0,81,-99.99,,,-99.99,,2013-04-07 16:25:00,
2013-04-07 11:34:00,34.0,28.0,-100.00,NW,325,0.0,0.0,81,-99.99,,,-99.99,,2013-04-07 16:34:00,
2013-04-07 11:44:00,34.0,28.0,-100.00,NW,325,0.0,0.0,81,-99.99,,,-99.99,,2013-04-07 16:44:00,
2013-04-07 11:54:00,34.0,28.0,-100.00,NW,325,0.0,0.0,81,-99.99,,,-99.99,,2013-04-07 16:54:00,
2013-04-07 12:01:00,34.0,28.0,-100.00,NW,325,0.0,0.0,79,-99.99,,,-99.99,,2013-04-07 17:01:00,
2013-04-07 12:24:00,34.0,28.0,-100.00,NW,325,0.0,0.0,79,-99.99,,,-99.99,,2013-04-07 17:24:00,
2013-04-07 12:33:00,34.0,28.0,-100.00,NW,325,0.0,0.0,79,-99.99,,,-99.99,,2013-04-07 17:33:00,
2013-04-07 12:43:00,34.0,28.0,-100.00,NW,325,0.0,0.0,79,-99.99,,,-99.99,,2013-04-07 17:43:00,
2013-04-07 12:54:00,34.0,28.0,-100.00,NW,325,0.0,0.0,79,-99.99,,,-99.99,,2013-04-07 17:54:00,
2013-04-07 13:01:00,35.0,28.0,-100.00,WNW,300,0.0,0.0,76,-99.99,,,-99.99,,2013-04-07 18:01:00,
2013-04-07 13:23:00,35.0,28.0,-100.00,WNW,300,0.0,0.0,76,-99.99,,,-99.99,,2013-04-07 18:23:00,
2013-04-07 13:33:00,35.0,28.0,-100.00,WNW,300,0.0,0.0,76,-99.99,,,-99.99,,2013-04-07 18:33:00,
2013-04-07 13:44:00,35.0,28.0,-100.00,WNW,300,0.0,0.0,76,-99.99,,,-99.99,,2013-04-07 18:44:00,
2013-04-07 13:53:00,35.0,28.0,-100.00,WNW,300,0.0,0.0,76,-99.99,,,-99.99,,2013-04-07 18:53:00,
2013-04-07 14:01:00,36.0,28.0,-100.00,NW,315,0.0,0.0,72,-99.99,,,-99.99,,2013-04-07 19:01:00,
2013-04-07 14:23:00,36.0,28.0,-100.00,NW,315,0.0,0.0,72,-99.99,,,-99.99,,2013-04-07 19:23:00,
2013-04-07 14:33:00,36.0,28.0,-100.00,NW,315,0.0,0.0,72,-99.99,,,-99.99,,2013-04-07 19:33:00,
2013-04-07 14:43:00,36.0,28.0,-100.00,NW,315,0.0,0.0,72,-99.99,,,-99.99,,2013-04-07 19:43:00,
2013-04-07 14:55:00,36.0,28.0,-100.00,NW,315,0.0,0.0,72,-99.99,,,-99.99,,2013-04-07 19:55:00,
2013-04-07 15:01:00,39.0,29.0,-100.00,West,265,0.0,0.0,66,-99.99,,,-99.99,,2013-04-07 20:01:00,
2013-04-07 15:23:00,39.0,29.0,-100.00,West,265,0.0,0.0,66,-99.99,,,-99.99,,2013-04-07 20:23:00,
2013-04-07 15:33:00,39.0,29.0,-100.00,West,265,0.0,0.0,66,-99.99,,,-99.99,,2013-04-07 20:33:00,
2013-04-07 15:44:00,39.0,29.0,-100.00,West,265,0.0,0.0,66,-99.99,,,-99.99,,2013-04-07 20:44:00,
2013-04-07 16:01:00,39.0,28.0,-100.00,SSW,195,0.0,0.0,63,-99.99,,,-99.99,,2013-04-07 21:01:00,
2013-04-07 16:23:00,39.0,28.0,-100.00,SSW,195,0.0,0.0,63,-99.99,,,-99.99,,2013-04-07 21:23:00,
2013-04-07 16:35:00,39.0,28.0,-100.00,SSW,195,0.0,0.0,63,-99.99,,,-99.99,,2013-04-07 21:35:00,
2013-04-07 16:45:00,39.0,28.0,-100.00,SSW,195,0.0,0.0,63,-99.99,,,-99.99,,2013-04-07 21:45:00,
2013-04-07 16:55:00,39.0,28.0,-100.00,SSW,195,0.0,0.0,63,-99.99,,,-99.99,,2013-04-07 21:55:00,
2013-04-07 17:01:00,40.0,29.0,-100.00,SSW,200,0.0,0.0,62,-99.99,,,-99.99,,2013-04-07 22:01:00,
2013-04-07 17:24:00,40.0,29.0,-100.00,SSW,200,0.0,0.0,62,-99.99,,,-99.99,,2013-04-07 22:24:00,
2013-04-07 17:34:00,40.0,29.0,-100.00,SSW,200,0.0,0.0,62,-99.99,,,-99.99,,2013-04-07 22:34:00,
2013-04-07 17:44:00,40.0,29.0,-100.00,SSW,200,0.0,0.0,62,-99.99,,,-99.99,,2013-04-07 22:44:00,
2013-04-07 17:53:00,40.0,29.0,-100.00,SSW,200,0.0,0.0,62,-99.99,,,-99.99,,2013-04-07 22:53:00,
2013-04-07 18:01:00,39.0,28.0,-100.00,SW,220,0.0,0.0,64,-99.99,,,-99.99,,2013-04-07 23:01:00,
2013-04-07 18:23:00,39.0,28.0,-100.00,SW,220,0.0,0.0,64,-99.99,,,-99.99,,2013-04-07 23:23:00,
2013-04-07 18:33:00,39.0,28.0,-100.00,SW,220,0.0,0.0,64,-99.99,,,-99.99,,2013-04-07 23:33:00,
2013-04-07 18:43:00,39.0,28.0,-100.00,SW,220,0.0,0.0,64,-99.99,,,-99.99,,2013-04-07 23:43:00,
2013-04-07 18:53:00,39.0,28.0,-100.00,SW,220,0.0,0.0,64,-99.99,,,-99.99,,2013-04-07 23:53:00,
2013-04-07 19:02:00,37.0,29.0,-100.00,SE,130,0.0,0.0,71,-99.99,,,-99.99,,2013-04-08 00:02:00,
2013-04-07 19:23:00,37.0,29.0,-100.00,SE,130,0.0,0.0,71,-99.99,,,-99.99,,2013-04-08 00:23:00,
2013-04-07 19:33:00,37.0,29.0,-100.00,SE,130,0.0,0.0,71,-99.99,,,-99.99,,2013-04-08 00:33:00,
2013-04-07 19:43:00,37.0,29.0,-100.00,SE,130,0.0,0.0,71,-99.99,,,-99.99,,2013-04-08 00:43:00,
2013-04-07 19:53:00,37.0,29.0,-100.00,SE,130,0.0,0.0,71,-99.99,,,-99.99,,2013-04-08 00:53:00,
2013-04-07 20:01:00,35.0,30.0,-100.00,ESE,120,0.0,0.0,82,-99.99,,,-99.99,,2013-04-08 01:01:00,
2013-04-07 20:23:00,35.0,30.0,-100.00,ESE,120,0.0,0.0,82,-99.99,,,-99.99,,2013-04-08 01:23:00,
2013-04-07 20:34:00,35.0,30.0,-100.00,ESE,120,0.0,0.0,82,-99.99,,,-99.99,,2013-04-08 01:34:00,
2013-04-07 20:44:00,35.0,30.0,-100.00,ESE,120,0.0,0.0,82,-99.99,,,-99.99,,2013-04-08 01:44:00,
2013-04-07 20:55:00,35.0,30.0,-100.00,ESE,120,0.0,0.0,82,-99.99,,,-99.99,,2013-04-08 01:55:00,
2013-04-07 21:01:00,33.0,30.0,-100.00,East,95,0.0,0.0,88,-99.99,,,-99.99,,2013-04-08 02:01:00,
2013-04-07 21:22:00,33.0,30.0,-100.00,East,95,0.0,0.0,88,-99.99,,,-99.99,,2013-04-08 02:22:00,
2013-04-07 21:33:00,33.0,30.0,-100.00,East,95,0.0,0.0,88,-99.99,,,-99.99,,2013-04-08 02:33:00,
2013-04-07 21:48:00,33.0,30.0,-100.00,East,95,0.0,0.0,88,-99.99,,,-99.99,,2013-04-08 02:48:00,
2013-04-07 21:54:00,33.0,30.0,-100.00,East,95,0.0,0.0,88,-99.99,,,-99.99,,2013-04-08 02:54:00,
2013-04-07 22:01:00,34.0,30.0,-100.00,ESE,105,0.0,0.0,88,-99.99,,,-99.99,,2013-04-08 03:01:00,
2013-04-07 22:26:00,34.0,30.0,-100.00,ESE,105,0.0,0.0,88,-99.99,,,-99.99,,2013-04-08 03:26:00,
2013-04-07 22:37:00,34.0,30.0,-100.00,ESE,105,0.0,0.0,88,-99.99,,,-99.99,,2013-04-08 03:37:00,
2013-04-07 22:48:00,34.0,30.0,-100.00,ESE,105,0.0,0.0,88,-99.99,,,-99.99,,2013-04-08 03:48:00,
2013-04-07 22:57:00,34.0,30.0,-100.00,ESE,105,0.0,0.0,88,-99.99,,,-99.99,,2013-04-08 03:57:00,
2013-04-07 23:01:00,34.0,31.0,-100.00,ESE,115,0.0,0.0,89,-99.99,,,-99.99,,2013-04-08 04:01:00,
2013-04-07 23:23:00,34.0,31.0,-100.00,ESE,115,0.0,0.0,89,-99.99,,,-99.99,,2013-04-08 04:23:00,
2013-04-07 23:34:00,34.0,31.0,-100.00,ESE,115,0.0,0.0,89,-99.99,,,-99.99,,2013-04-08 04:34:00,
2013-04-07 23:44:00,34.0,31.0,-100.00,ESE,115,0.0,0.0,89,-99.99,,,-99.99,,2013-04-08 04:44:00,
2013-04-07 23:53:00,34.0,31.0,-100.00,ESE,115,0.0,0.0,89,-99.99,,,-99.99,,2013-04-08 04:53:00,